Find Starlink 32564

NORAD ID: 61924 Int'l Des: 2024-207 Owner: SPXS Country: US Constellation: starlink operational
LEOCIRCULAR

Current View

Loading 3D Globe...

About Starlink 32564

Starlink 32564 (NORAD 61924) is a starlink constellation satellite (v2 mini) launched Nov 11, 2024 by SPXS of US. It operates in LEO, CIRCULAR orbit with a mass of 730.00 kg.

Upcoming Passes

Passes for default location (London). Set your location on the main map for personalized predictions.

Altitude History

Loading altitude history...

Two-Line Element Set

1 61924U 24207N 26263.05644046 .00009309 00000-0 34730-3 0 9996
2 61924 43.0054 267.8917 0001682 266.8139 93.2520 15.27586492104401
Epoch: Sep 20, 2026 • Age: 20 hours

Current Status

Altitude 494.6 km
Apogee / Perigee N/A
Velocity 7.62 km/s
Sub-Earth Point -41.52°S, 165.33°W
Launch Date Nov 11, 2024
Age 1.8 years
Type internet

Technical Details

Classification Payload
Mass 730.00 kg
Dry Mass 700.00 kg
Length 0.30 m
Span 29.00 m
Shape ? Box + pan
Manufacturer SPXS
Bus Type Starlink V2M
Phase Status In Orbit
Owner/State SPXS/US

Most Searched